Location: Bucquoy
(50.1391°N, 2.7097°E)
Time: 03:49:52
(UTC+00:00)

CBERS-1 - Pass Details

Date: 06 May 2021
Orbit: 770 x 776 km, 98.7° (Epoch: 22 June)

Event Time Altitude Azimuth Distance (km) Brightness Sun altitude
Rises 03:00:08 0° 11° (NNE) 3,257 8.2 -10.8°
Reaches altitude 10° 03:02:29 10° 8° (N) 2,326 7.3 -10.5°
Maximum altitude 03:07:29 57° 291° (WNW) 909 4.2 -9.9°
Enters shadow 03:12:19 11° 214° (SW) 2,256 5.8 -9.3°
